{"data":{"norad_id":56420,"epoch":"2026-05-24T21:16:46.778592Z","epoch_age_seconds":81528,"freshness":"FRESH","line1":"1 56420U 23061AY  26144.88665253  .00047059  00000+0  17228-2 0  9995","line2":"2 56420  43.0024 109.1819 0001001  34.0165 326.0751 15.27311194168612","mean_motion":15.27311194,"eccentricity":0.0001001,"inclination_deg":43.0024,"raan_deg":109.1819,"arg_perigee_deg":34.0165,"mean_anomaly_deg":326.0751,"bstar":0.0017228,"rev_number":16861,"period_min":94.283339613891,"perigee_km":483.16723064503,"apogee_km":484.54100126644,"semimajor_km":6861.9911159557,"source":"CELESTRAK","updated_at":"2026-05-25T13:38:18.063491Z"}}